Location: Starlight Observatory
(38.4029°N, 85.8936°W)
Time: 08:28:47
(UTC-04:00)

Iridium 62 - Visible Passes

Search period start: 23 June 2018 00:00
Search period end: 03 July 2018 00:00
Orbit: 761 x 764 km, 86.4° (Epoch: 22 June)

Date Brightness Start Highest point End Pass type
(mag) Time Alt. Az. Time Alt. Az. Time Alt. Az.
23 Jun 7.7 01:06:45 10° NW 01:10:19 19° W 01:11:28 18° W visible
23 Jun 7.2 22:48:23 10° NNE 22:52:14 21° ENE 22:53:41 19° E visible
24 Jun 6.7 00:28:00 10° NNW 00:32:46 39° W 00:33:51 35° WSW visible
24 Jun 5.7 23:49:54 10° N 23:55:04 83° W 23:56:16 54° S visible
25 Jun 6.2 23:12:14 10° N 23:17:12 46° E 23:18:41 36° SE visible
26 Jun 7.9 00:53:49 10° NW 00:57:10 18° W 00:58:51 15° WSW visible
26 Jun 7.2 22:35:08 10° NNE 22:39:10 23° ENE 22:41:06 18° ESE visible
27 Jun 6.9 00:14:58 10° NNW 00:19:38 36° W 00:21:17 29° WSW visible
27 Jun 7.8 21:59:44 10° ENE 22:00:57 11° ENE 22:02:10 10° E visible
27 Jun 5.8 23:36:48 10° N 23:41:57 77° W 23:43:43 42° SSW visible
28 Jun 6.1 22:59:05 10° N 23:04:06 51° E 23:06:10 32° SE visible
29 Jun 8.0 00:40:55 10° NW 00:44:01 16° W 00:46:20 12° WSW visible
29 Jun 7.0 22:21:55 10° NNE 22:26:05 25° E 22:28:37 17° ESE visible
30 Jun 7.1 00:01:56 10° NNW 00:06:30 33° W 00:08:48 23° SW visible
30 Jun 7.8 21:46:01 10° NE 21:47:54 12° ENE 21:49:46 10° E visible
30 Jun 5.9 23:23:42 10° N 23:28:50 71° W 23:31:16 31° SSW visible
01 Jul 6.0 22:45:57 10° N 22:51:01 55° E 22:53:45 26° SSE visible
02 Jul 8.2 00:28:02 10° NW 00:30:51 15° W 00:33:41 10° WSW visible
02 Jul 6.9 22:08:41 10° NNE 22:13:01 27° E 22:16:14 15° SE visible
02 Jul 7.3 23:48:54 10° NNW 23:53:22 31° W 23:56:26 17° SW visible
